Skip Page Navigation
NASA JPL Caltech
NASA Logo - Jet Propulsion Laboratory + View the NASA Portal
+ Near-Earth Object (NEO) Program
Search JPL
JPL Home Earth Solar System Stars & Galaxies Technology
JPL Solar System Dynamics
BODIES ORBITS EPHEMERIDES TOOLS PHYSICAL DATA DISCOVERY FAQ SITE MAP
JPL Small-Body Database Browser
Search: [ help ]  
23722 Gulak (1998 HD32)
Classification: Main-belt Asteroid          SPK-ID: 2023722
Ephemeris | Orbit Diagram | Orbital Elements | Physical Parameters | Discovery Circumstances ]

[ show orbit diagram ]
Orbital Elements at Epoch 2456400.5 (2013-Apr-18.0) TDB
Reference: MPO233653 (heliocentric ecliptic J2000)
 Element Value Uncertainty (1-sigma)   Units 
e 0.1892889 n/a  
a 2.2786491 n/a AU
q 1.8473261 n/a AU
i 4.13557 n/a deg
node 221.73010 n/a deg
peri 125.35308 n/a deg
M 357.45276 n/a deg
tp 2456409.3895949
(2013-Apr-26.88959490)
n/a JED
period 1256.3614641
3.44
n/a
n/a
d
yr
n 0.28654174 n/a deg/d
Q 2.7099721 n/a AU
  Orbit Determination Parameters
   # obs. used (total)      634  
   first obs. used      1997-??-??  
   last obs. used      2012-06-16  
   # oppositions      12  
   planetary ephem.      DE403  
   condition code      0  
   fit RMS      0.54  
   data source      MPC:mpn  
   producer      MPCLINUX  

Additional Information
 T_jup = 3.580 

Ephemeris | Orbit Diagram | Orbital Elements | Physical Parameters | Discovery Circumstances ]

Physical Parameter Table
Parameter Symbol Value Units Sigma Reference Notes
absolute magnitude H 15.2 mag n/a PDS3 (MPO 11176)  

23722 Gulak           Discovered 1998 Apr. 20 by the Lincoln Laboratory Near-Earth Asteroid Research Team in Socorro.
Benjamin Poss Gulak (b. 1989) was awarded second place in the 2007 Intel International Science and Engineering Fair for his electrical and mechanical engineering team project. He attends the Chisholm Collegiate, Oakville, Ontario, Canada.
NOTE: some special characters may not display properly (any characters within {} are an attempt to place the proper accent above a character)
Reference: 20070828/MPCPages.arcLast Updated: 2007-08-30
Ephemeris | Orbit Diagram | Orbital Elements | Physical Parameters | Discovery Circumstances ]
ABOUT SSD CREDITS/AWARDS PRIVACY/COPYRIGHT GLOSSARY LINKS
FirstGov 2013-May-25 13:16 UT
(server date/time)  
NASA Home Page
Site Manager:   Donald K. Yeomans
Webmaster  Alan B. Chamberlin